Train No Train Name From To Distance Stops avg_speed (km/hr)
12561 Swatantrata Sainani Express Jaynagar New Delhi 1241 20 55
A Train's "Departure" Station, "Arrival" Station and "Distance" may vary. Although we have verified some of this data from enquiry.indianrail.gov.in
Train No Start Date (yyyy-mm-dd) Status Delay Time Source
12561 2017-01-13 Late 09 hours 40 minutes Source
12561 2017-01-14 Late 09 hours 40 minutes Source
12561 2017-01-15 Late 08 hours 50 minutes Source
12561 2017-01-21 Late 08 hours 19 minutes Source
12561 2017-01-22 Late 09 hours 34 minutes Source
12561 2017-01-27 Late 09 hours 30 minutes Source
12561 2017-01-28 Late 05 hours 55 minutes Source
12561 2017-02-04 Late 06 hours 20 minutes Source
12561 2017-02-05 Late 09 hours 24 minutes Source
12561 2017-02-10 Late 06 hours 54 minutes Source
12561 2017-02-11 Late 08 hours 27 minutes Source
12561 2017-02-12 Late 09 hours 00 minutes Source
12561 2017-02-14 Late 08 hours 35 minutes Source
12561 2017-02-17 Late 09 hours 08 minutes Source
12561 2017-02-18 Late 06 hours 48 minutes Source
12561 2017-02-24 Late 09 hours 35 minutes Source
12561 2017-02-25 Late 09 hours 30 minutes Source
12561 2017-02-26 Late 07 hours 20 minutes Source
12561 2017-02-27 Late 09 hours 51 minutes Source
12561 2017-02-28 Late 06 hours 52 minutes Source
12561 2017-03-01 Late 08 hours 45 minutes Source
12561 2017-03-03 Late 07 hours 40 minutes Source
12561 2017-03-06 Late 05 hours 58 minutes Source
12561 2017-03-09 Late 06 hours 20 minutes Source
12561 2017-03-17 Late 08 hours 58 minutes Source
12561 2017-03-18 Late 06 hours 12 minutes Source
12561 2017-03-19 Late 07 hours 58 minutes Source
12561 2017-03-20 Late 08 hours 05 minutes Source
12561 2017-03-21 Late 07 hours 55 minutes Source
12561 2017-03-22 Late 07 hours 20 minutes Source
12561 2017-03-26 Late 09 hours 40 minutes Source
12561 2017-03-28 Late 06 hours 10 minutes Source
12561 2017-03-29 Late 06 hours 34 minutes Source
12561 2017-03-30 Late 05 hours 13 minutes Source
12561 2017-03-31 Late 06 hours 36 minutes Source
12561 2017-04-02 Late 05 hours 50 minutes Source
12561 2017-04-03 Late 07 hours 20 minutes Source
12561 2017-04-04 Late 07 hours 17 minutes Source
12561 2017-04-09 Late 07 hours 40 minutes Source
12561 2017-04-10 Late 08 hours 34 minutes Source
12561 2017-04-11 Late 06 hours 00 minutes Source
12561 2017-04-13 Late 06 hours 25 minutes Source
12561 2017-04-14 Late 08 hours 35 minutes Source
12561 2017-04-16 Late 05 hours 55 minutes Source
12561 2017-04-18 Late 07 hours 28 minutes Source
12561 2017-04-20 Late 05 hours 45 minutes Source
12561 2017-04-21 Late 08 hours 40 minutes Source
12561 2017-04-23 Late 06 hours 06 minutes Source
12561 2017-04-24 Late 06 hours 50 minutes Source
12561 2017-04-26 Late 09 hours 57 minutes Source
Page 1 of 2, showing 50 records out of 51 total